SCP
1 1 1 1 1 1 1 1 1 1 2 2 2 2 2 2 1 1 1 1 1 1 1 1 1 1 1 1 1 1 0 0 0 0 0 0 0 0 0 0 0 0 0
1 1 1 1 1 1 1 1 1 1 1 2 2 2 2 2 2 2 1 1 1 1 1 1 1 1 1 1 1 1 0 0 0 0 0 0 0 0 0 0 0 0 0
1 1 1 1 1 1 1 1 1 1 1 2 2 2 2 2 2 2 2 1 1 1 1 1 1 1 1 1 1 1 0 0 0 0 0 0 0 0 0 0 0 0 0
1 1 1 2 2 1 1 1 1 1 1 1 1 1 1 1 1 2 2 2 2 2 1 1 1 1 1 1 1 1 1 0 0 0 0 0 0 0 0 0 0 0 0
1 1 1 1 1 1 1 1 1 1 1 1 1 1 1 1 1 1 2 2 1 1 2 1 1 1 1 1 1 1 1 1 1 1 1 1 1 1 0 0 0 0 0
1 1 1 1 1 1 1 1 1 1 1 1 1 1 1 1 1 1 1 1 1 1 1 1 1 1 1 1 1 1 1 1 1 1 1 1 1 1 0 0 0 0 0
2 1 1 1 1 1 1 1 1 1 1 1 1 1 1 1 1 1 1 1 1 1 1 1 1 1 1 1 1 1 1 1 1 1 1 1 1 1 1 0 0 0 0
2 1 1 1 1 1 1 1 1 0 1 1 1 1 1 1 1 1 1 1 1 2 1 1 1 1 1 1 1 1 1 1 1 1 1 1 1 1 1 0 0 0 0
1 1 1 0 1 1 1 0 0 0 0 0 1 1 1 1 1 1 1 1 1 2 2 1 1 1 1 1 1 1 1 1 1 1 0 1 1 1 1 1 0 0 0
1 0 0 0 0 0 0 0 0 0 0 0 0 1 1 1 1 1 1 1 1 1 1 1 1 1 2 2 1 1 1 1 1 1 0 1 1 1 1 1 1 0 0
0 0 0 0 0 0 0 0 0 0 1 1 0 1 1 1 1 1 1 1 1 1 1 1 1 1 1 1 1 1 1 1 1 1 1 1 2 1 1 1 1 1 1
0 0 0 0 0 0 0 0 0 0 0 0 0 1 1 1 1 1 1 1 1 1 1 1 1 1 1 1 1 1 1 1 1 1 1 1 2 1 1 1 1 1 1
0 0 0 0 0 0 0 0 0 0 0 0 0 0 1 1 1 1 1 1 1 1 1 1 1 1 1 1 1 1 1 1 1 1 1 2 2 1 1 1 1 1 1
0 0 0 0 0 0 0 0 0 0 0 0 0 0 0 1 1 1 1 1 1 1 1 1 1 1 1 1 1 1 1 1 1 1 1 2 2 1 1 1 1 1 1
0 0 0 0 0 0 0 0 0 0 0 0 0 0 0 1 1 1 1 1 1 1 1 1 1 1 1 1 1 1 1 1 1 1 1 1 1 1 1 1 1 1 0
0 0 0 0 0 0 0 0 0 0 0 0 0 1 1 1 1 1 1 1 1 1 1 1 1 1 1 1 1 1 1 1 1 1 1 1 1 1 1 1 1 1 1
0 0 0 0 0 0 0 0 0 0 0 0 0 0 0 1 1 1 1 1 1 1 1 1 1 1 1 1 1 1 1 1 1 1 1 1 1 1 1 1 1 1 1
0 0 0 0 0 0 0 0 0 0 0 0 0 0 0 0 1 1 1 1 1 1 1 1 1 1 1 1 1 1 1 1 1 1 1 1 1 1 1 1 1 1 1
0 0 0 0 0 0 0 0 0 0 0 0 0 0 0 0 0 1 1 1 1 1 1 1 1 1 1 1 1 1 1 1 1 1 1 1 1 1 1 1 1 1 1
0 0 0 0 0 0 0 0 0 0 0 0 0 0 0 0 0 1 1 0 0 1 1 1 1 1 1 1 1 1 1 1 1 1 1 1 1 1 1 1 1 1 1
0 0 0 0 0 0 0 0 0 0 0 0 0 0 0 0 0 0 0 0 0 1 1 1 1 1 1 1 1 1 1 1 1 1 1 1 1 1 1 1 1 1 1
0 0 0 0 0 0 0 0 0 0 0 0 0 0 0 0 0 0 0 0 0 0 0 0 1 1 1 1 1 1 1 1 1 1 1 1 1 1 1 1 1 1 1
0 0 0 0 0 0 0 0 0 0 0 0 0 0 0 0 0 0 0 0 0 0 0 0 0 1 1 1 1 1 0 1 1 1 1 1 1 1 1 1 1 1 1
0 0 0 0 0 0 0 0 0 0 0 0 0 0 0 0 0 0 0 0 0 0 0 0 0 0 1 1 0 0 0 0 0 1 1 1 1 1 1 1 1 1 1
0 0 0 0 0 0 0 0 0 0 0 0 0 0 0 0 0 0 0 0 0 0 0 0 0 0 0 0 0 0 0 0 0 0 1 1 1 1 1 1 1 1 1
0 0 0 0 0 0 0 0 0 0 0 0 0 0 0 0 0 0 0 0 0 0 0 0 0 0 0 0 0 0 0 0 0 0 1 1 1 1 1 1 1 1 1
Wind_Speed
9 11 12 11 10 9 8 8 7 7 6 6 5 5 5 5 5 4 4 5 5 5 5 6 6 5 6 6 6 6 6 6 5 5 4 4 5 6 6 7 7 5 8
11 12 12 11 10 9 8 8 7 7 6 6 5 5 5 5 4 4 3 4 4 4 4 5 5 5 4 5 5 5 5 5 5 4 3 1 2 4 6 7 9 5 8
12 12 11 11 10 9 8 7 6 6 5 5 5 5 4 4 4 4 3 3 4 4 3 3 3 3 4 4 4 5 5 5 5 6 7 2 2 4 5 6 7 8 8
11 10 10 11 10 9 7 6 6 5 4 4 3 3 3 3 3 3 3 3 3 4 4 4 3 3 3 3 4 4 4 5 6 8 4 1 3 6 5 6 6 7 7
11 11 10 10 9 8 7 6 5 4 3 2 1 1 1 2 2 3 3 3 3 4 4 4 4 4 4 3 3 3 4 6 8 8 4 2 5 6 6 5 5 6 6
11 11 10 10 9 8 7 5 4 4 3 1 0 1 2 2 2 2 2 3 3 4 4 4 5 5 5 4 4 4 5 6 8 5 3 2 4 5 5 5 5 5 5
10 10 10 10 9 8 6 5 4 3 2 0 2 3 4 4 4 4 4 4 4 4 5 5 5 5 5 5 4 4 5 7 7 5 2 3 5 6 5 4 4 4 5
8 9 10 11 10 8 6 5 3 1 0 1 3 4 5 6 6 6 6 6 6 5 5 5 5 6 6 6 6 5 6 7 7 6 1 4 7 7 5 4 4 4 4
6 6 6 7 8 8 7 6 4 2 2 3 4 5 6 8 9 9 9 9 8 7 6 6 6 6 6 6 7 7 7 7 6 6 3 3 8 8 5 4 3 4 4
5 5 4 3 5 5 6 7 5 4 4 5 6 7 8 9 11 12 11 11 10 9 8 8 7 7 7 7 8 8 8 7 6 6 1 5 10 8 6 4 3 3 3
4 3 4 3 4 2 2 6 5 5 6 6 7 10 8 5 6 7 9 10 11 10 9 9 9 9 8 8 9 9 7 4 6 4 2 7 10 9 6 5 4 4 4
4 3 4 3 3 3 2 2 1 0 2 3 2 3 3 3 2 3 5 9 11 11 10 11 11 9 7 4 7 8 4 7 6 4 4 11 10 9 6 5 5 5 5
4 4 4 3 3 3 2 2 1 1 0 1 2 1 1 2 1 1 2 4 6 8 6 7 7 5 5 4 3 4 5 5 3 2 5 11 10 9 7 6 6 6 6
5 4 4 3 3 3 3 2 1 0 1 1 2 3 1 1 2 1 1 1 2 3 3 3 3 4 5 5 4 5 5 4 2 1 4 10 10 9 8 7 7 7 7
5 3 4 4 5 4 2 1 1 1 1 1 1 3 2 2 2 2 2 1 2 2 2 3 3 4 3 3 3 4 4 4 3 2 4 9 10 10 9 8 8 8 8
5 4 5 4 4 3 3 2 2 2 0 1 1 3 3 1 2 2 3 2 2 2 2 2 3 2 3 2 3 3 3 3 3 3 4 6 9 10 9 9 9 9 9
4 5 5 2 3 4 4 4 3 2 2 2 2 3 3 2 3 2 2 2 2 2 2 1 2 1 2 3 3 4 3 3 3 3 4 5 6 9 10 10 10 9 9
4 5 4 3 4 4 3 3 2 2 3 2 2 3 5 4 3 2 2 2 3 2 2 1 1 1 1 2 2 3 3 3 4 4 3 4 5 6 8 11 10 10 10
4 4 4 4 2 3 2 1 1 2 1 1 2 2 4 5 4 3 2 2 3 2 2 3 1 1 1 2 2 3 3 2 3 4 4 4 5 6 6 9 11 10 10
3 4 5 3 2 2 2 2 2 2 2 2 1 2 3 3 4 4 3 3 2 2 2 2 2 2 1 2 3 3 2 3 2 3 3 2 2 4 5 7 6 7 11
4 3 4 2 3 2 2 2 2 1 2 1 1 2 2 3 3 3 3 3 2 2 2 2 1 2 2 1 1 2 2 3 2 3 2 2 2 3 3 5 5 5 5
4 3 3 3 3 3 2 1 1 1 2 1 1 1 3 3 3 4 3 2 2 2 2 2 1 1 1 1 1 0 1 1 2 3 2 2 2 1 3 5 5 6 6
4 4 2 3 3 3 2 1 2 1 2 1 1 1 2 2 2 2 4 3 3 2 1 2 1 1 1 1 0 1 0 1 1 2 2 2 2 1 2 2 4 5 6
5 4 3 3 3 3 2 2 2 2 1 2 2 1 2 1 2 2 3 3 3 1 1 2 1 1 0 1 1 1 1 0 1 1 2 2 2 2 2 2 1 1 2
6 4 2 3 3 4 2 1 2 2 2 2 2 2 2 1 1 2 3 3 3 2 1 1 1 1 0 0 1 1 1 1 1 0 1 1 1 1 1 1 1 0 0
6 5 3 3 4 3 1 1 1 1 2 2 3 2 2 1 1 2 2 3 2 2 2 2 1 1 0 0 1 1 0 0 0 0 0 1 1 1 1 1 1 1 1
Wind_Direction
107 112 116 113 110 104 96 90 86 82 77 69 62 59 60 58 53 45 41 36 35 32 27 24 24 24 27 27 26 24 23 20 21 18 25 42 51 47 38 28 23 53 52
110 111 110 107 104 100 94 88 86 80 72 64 56 45 39 38 36 28 26 20 17 20 21 17 14 18 21 20 18 16 14 9 359 340 329 338 71 61 47 42 47 55 51
106 109 105 101 98 95 93 91 87 82 74 65 55 46 34 27 21 12 1 358 354 354 357 0 358 4 7 11 9 6 2 349 329 316 303 275 127 82 59 51 53 56 53
102 105 102 101 97 92 89 87 85 80 71 64 55 44 32 18 5 359 349 341 335 331 327 330 331 333 338 348 353 352 346 330 314 309 299 274 112 94 72 58 56 59 56
99 100 100 100 96 91 86 82 79 77 67 62 49 17 351 343 343 346 335 335 331 319 311 312 311 306 308 312 320 327 326 315 308 301 302 70 92 100 84 66 60 65 62
106 107 110 107 102 97 89 82 74 69 62 47 266 245 262 286 298 307 302 311 315 315 313 312 307 298 293 294 294 298 307 308 305 295 297 87 103 103 92 77 69 70 69
111 116 123 121 117 112 102 92 79 69 63 316 259 248 246 254 262 261 258 267 277 290 304 305 299 296 288 284 280 281 288 298 285 282 274 113 118 117 103 91 81 79 79
110 118 126 136 137 136 129 117 98 84 226 269 266 258 254 252 253 255 247 249 256 263 277 288 290 289 286 277 268 266 273 284 294 298 249 137 134 126 115 105 95 93 93
102 108 126 145 147 146 138 132 136 159 221 245 250 250 250 248 249 248 243 243 246 251 258 266 277 281 278 270 257 253 261 270 281 281 276 134 139 134 127 119 113 109 107
107 104 107 121 122 139 150 153 163 183 207 229 238 241 245 249 247 244 239 237 238 241 247 255 263 270 271 267 253 245 249 263 258 267 243 142 143 138 135 136 135 130 128
109 114 115 99 103 122 166 150 180 199 207 227 233 231 238 246 240 235 228 225 227 233 239 244 251 255 259 256 247 239 240 242 248 240 175 149 147 142 141 146 152 154 148
114 83 77 73 86 76 25 93 101 182 189 233 247 225 227 248 253 249 208 220 227 232 237 241 245 248 248 242 236 228 230 237 249 235 166 154 151 147 148 160 167 167 163
102 77 66 52 57 66 61 54 27 300 262 289 324 305 276 290 276 244 199 215 225 230 231 234 234 230 229 230 215 209 229 240 236 219 158 155 155 156 161 174 179 177 174
92 69 54 33 45 48 57 14 260 0 19 348 351 335 337 330 303 289 251 216 214 221 213 222 218 225 231 234 223 215 231 237 239 165 161 161 162 163 172 183 186 186 185
109 103 73 33 35 27 57 305 8 50 16 350 353 317 348 349 318 319 282 255 248 242 214 216 221 230 240 244 242 227 235 243 242 207 158 169 171 173 181 188 192 191 190
109 93 80 44 39 19 18 2 25 7 345 0 359 323 344 328 304 314 311 304 285 268 254 226 221 218 242 242 246 254 251 245 242 214 170 179 185 184 187 192 194 192 192
100 91 85 59 42 36 23 2 2 343 12 15 5 339 343 342 333 335 328 324 314 295 281 275 272 231 244 242 239 249 251 248 250 242 186 184 188 193 193 195 194 192 191
96 88 86 52 43 48 34 343 343 5 14 357 3 355 342 342 346 339 332 318 307 315 318 285 258 260 260 256 257 264 255 241 244 255 231 199 181 185 194 196 194 194 192
109 111 102 74 43 54 24 309 5 15 349 348 9 13 345 341 346 350 319 300 314 333 326 305 323 293 269 263 252 242 248 240 241 250 251 227 194 178 178 191 193 192 191
122 116 106 109 87 64 36 358 24 10 341 9 16 27 350 331 342 336 310 324 336 332 320 311 313 307 271 249 268 264 244 231 234 245 257 249 208 182 176 174 183 193 194
137 117 114 114 102 84 58 3 358 347 324 1 354 22 338 340 345 323 324 328 332 324 311 308 312 309 297 267 282 290 273 239 237 240 243 258 233 191 169 169 176 180 190
143 130 126 106 90 88 85 349 305 349 321 350 331 356 346 351 345 330 336 324 317 293 301 299 294 288 290 283 187 252 294 304 271 241 233 243 242 187 179 188 191 182 181
150 142 128 114 118 105 101 43 1 348 301 342 348 24 339 338 345 338 330 323 312 311 299 286 282 282 276 290 262 164 185 237 284 270 232 232 237 206 214 217 211 191 182
151 139 143 127 112 102 93 67 333 303 1 1 349 10 311 1 7 353 328 321 313 323 320 306 337 291 244 289 306 292 281 189 192 297 296 247 230 215 214 237 244 203 192
138 131 131 119 107 95 85 113 287 352 7 352 343 5 334 27 1 6 335 324 329 336 340 322 327 305 275 223 277 297 315 312 277 180 290 307 296 251 208 189 196 185 353
122 124 128 123 111 111 135 193 200 30 1 340 351 2 330 332 354 22 342 334 346 349 346 343 331 332 44 285 280 279 136 269 276 271 239 302 289 296 261 186 189 161 149